User: anonymous   Login
Location: Arroyo de Valdeoliva
(40.1604°N, 4.9878°W)
Time: 02:04:26
(UTC+00:00)
Language:

SMAP - Orbit

View from above orbital plane
View from above orbital plane
View from above satellite
View from above satellite

Ground track
Ground track

The orbit is defined by the following mean orbital elements,

1 40376U          26039.80577336 +.00000000 +00000-0 +13567-3 0 00007
2 40376  98.1306  48.7008 0001446  89.7390 270.3978 14.63438736    08
Epoch (UTC): 08 February 2026 19:20:18
Eccentricity: 0.0001446
inclination: 98.1306°
perigee height: 681 km
apogee height: 683 km
right ascension of ascending node: 48.7008°
argument of perigee: 89.7390°
revolutions per day: 14.63438736
mean anomaly at epoch: 270.3978°

The dashed part of the orbit path shows where the satellite is in the earth's shadow,  

DLR